Regional Weather Roundup
Issued by NWS

Home | Current Version | Previous Version | Text Only | Print | Product List | Glossary Off
Versions: 1 2 3 4 5 6 7 8 9 10 11 12 13 14 15 16 17 18 19 20 21 22 23 24 25 26 27 28 29 30 31 32 33 34 35 36 37 38 39 40 41 42 43 44 45 46 47 48 49 50

000
ASUS43 KFSD 202310
RWRSD

WEATHER ROUNDUP FOR SOUTH DAKOTA
NATIONAL WEATHER SERVICE SIOUX FALLS SD
600 PM CDT SAT SEP 20 2014

NOTE: "FAIR" INDICATES FEW OR NO CLOUDS BELOW 12,000 FEET WITH NO
SIGNIFICANT WEATHER AND/OR OBSTRUCTIONS TO VISIBILITY.


SDZ001>005-009-010-012>017-210000-
NORTHWEST AND NORTH CENTRAL SOUTH DAKOTA

CITY           SKY/WX    TMP DP  RH WIND       PRES   REMARKS
BUFFALO          N/A     72  33  24 NW29G37   30.10R
FAITH            N/A     73  34  23 NW26G33   30.10R
MOBRIDGE       SUNNY     73  40  30 NW21G35   30.00R
$$

SDZ012>016-024>037-041>051-057-063-072>074-210000-
SOUTHWEST AND SOUTH CENTRAL SOUTH DAKOTA

CITY           SKY/WX    TMP DP  RH WIND       PRES   REMARKS
RAPID CTY ARPT SUNNY     74  39  28 NW21G31   30.17R
PIERRE         SUNNY     77  35  21 NW22G36   30.02R
CUSTER         SUNNY     69  34  27 N7        30.27R
ELLSWORTH AFB  SUNNY     74  38  26 N21G29    30.17R
PHILIP         SUNNY     77  39  25 NW20G28   30.10R
PINE RIDGE     SUNNY     76  41  28 N15G23    30.16R
WINNER         FAIR      79  39  23 NW24G35   30.04R
$$

SDZ004>011-016>023-039-040-210000-
NORTHEAST SOUTH DAKOTA

CITY           SKY/WX    TMP DP  RH WIND       PRES   REMARKS
ABERDEEN       PTSUNNY   68  48  48 NW12      29.97R
WATERTOWN      MOSUNNY   67  46  47 NW26G35   29.93R
SISSETON         N/A     68  49  50 N18G31    29.89R
$$

SDZ017-020-022-023-036>040-048>070-210000-
SOUTHEAST SOUTH DAKOTA

CITY           SKY/WX    TMP DP  RH WIND       PRES   REMARKS
SIOUX FALLS    MOSUNNY   79  47  32 NW23G33   29.88R
HURON          SUNNY     74  42  31 NW24G36   29.95R
CHAMBERLAIN    SUNNY     76  44  31 N21G32    30.01R
MITCHELL       SUNNY     78  48  34 N25G32    29.95R
YANKTON        SUNNY    N/A N/A N/A W24G31    29.90S
$$

ABBREVIATIONS USED IN REMARKS
   TC - TEMPERATURE IN CELSIUS
  WCI - WIND CHILL INDEX
   HX - HEAT INDEX
  VSB - VISIBILITY




USA.gov is the U.S. government's official web portal to all federal, state and local government web resources and services.